This is the latest recevied weather packets stored in our database for station/object NQ9F. If no packets are shown the sender has not sent any weather packets the latest 10 day(s).
| Time | Temp. | Humidity | Pressure | Rain* | Wind** | Luminosity | Snow |
|---|---|---|---|---|---|---|---|
| 1777519984 | 16.11° C | 86% | 1016.2 hPa | 0 mm | - | 0 W/m² | - |
| 1777519680 | 15.56° C | 86% | 1015.7 hPa | 0 mm | - | 0 W/m² | - |
| 1777519377 | 16.11° C | 86% | 1016.1 hPa | 0 mm | - | 0 W/m² | - |
| 1777519074 | 16.11° C | 85% | 1016 hPa | 0 mm | - | 0 W/m² | - |
| 1777518770 | 16.11° C | 85% | 1015.9 hPa | 0 mm | - | 0 W/m² | - |
| 1777518466 | 16.11° C | 85% | 1015.9 hPa | 0 mm | - | 0 W/m² | - |
| 1777518161 | 16.11° C | 84% | 1015.7 hPa | 0 mm | - | 0 W/m² | - |
| 1777517858 | 16.11° C | 83% | 1015.9 hPa | 0 mm | - | 0 W/m² | - |
| 1777517554 | 16.11° C | 84% | 1015.9 hPa | 0 mm | - | 0 W/m² | - |
| 1777517252 | 16.11° C | 82% | 1015.8 hPa | 0 mm | - | 0 W/m² | - |
| 1777516951 | 16.11° C | 81% | 1015.8 hPa | 0 mm | - | 0 W/m² | - |
| 1777516647 | 16.11° C | 81% | 1015.8 hPa | 0 mm | - | 0 W/m² | - |
| 1777516343 | 16.11° C | 81% | 1015.9 hPa | 0 mm | - | 0 W/m² | - |
| 1777516039 | 16.11° C | 83% | 1015.9 hPa | 0 mm | - | 0 W/m² | - |
| 1777515736 | 16.11° C | 84% | 1015.8 hPa | 0 mm | - | 0 W/m² | - |
| 1777515433 | 16.11° C | 84% | 1015.4 hPa | 0 mm | - | 0 W/m² | - |
| 1777515129 | 15.56° C | 87% | 1014.6 hPa | 0 mm | - | 0 W/m² | - |
| 1777514826 | 15.56° C | 88% | 1015.2 hPa | 0 mm | - | 0 W/m² | - |
| 1777514523 | 15.56° C | 89% | 1015.1 hPa | 0 mm | - | 0 W/m² | - |
| 1777514221 | 15.56° C | 89% | 1015.2 hPa | 0 mm | - | 0 W/m² | - |
| 1777513916 | 15.56° C | 88% | 1015.1 hPa | 0 mm | - | 0 W/m² | - |
| 1777513614 | 15.56° C | 88% | 1014.8 hPa | 0 mm | - | 0 W/m² | - |
| 1777513310 | 15.56° C | 88% | 1014.7 hPa | 0 mm | - | 0 W/m² | - |
| 1777513007 | 15.56° C | 88% | 1014.6 hPa | 0 mm | - | 0 W/m² | - |
| 1777512400 | 15.56° C | 87% | 1014.3 hPa | 0 mm | - | 0 W/m² | - |
* Rain latest hour (hover to see other rain measurements)
** Current wind speed in m/s (hover to see current wind gust speed)